Tracking 19817 objects as of 19-Aug-2019
HD Live streaming from Space Station
objects crossing your sky now

FENGYUN 1C DEB

Track FENGYUN 1C DEB now!
10-day predictions


NORAD ID: 37925
Int'l Code: 1999-025EPA
Perigee: 670.7 km
Apogee: 808.1 km
Inclination: 99.1 °
Period: 99.4 minutes
Semi major axis: 7110 km
RCS: 0.0001 m2 (small)
Launch date: May 10, 1999
Source: People's Republic of China (PRC)
Launch site: Taiyaun Space Center, China (TSC)

Note: This is SATELLITE DEBRIS
aabbcc
Your satellite tracking list
Your tracking list is empty




NASA's NSSDC Master Catalog

Two Line Element Set (TLE):
1 37925U 99025EPA 19228.74963080  .00000371  00000-0  10834-3 0  9990
2 37925  99.1300 217.3890 0096607 117.0717 244.0371 14.47983791484383
Source of the keplerian elements: AFSPC